When you browse on this site, cookies collect data to enhance your experience and personalize the content and advertising you see.
Visit our Privacy Policy to learn more. By continuing to use the site, you agree to this use of cookies and data.
  • In Romania
  • List of Countries
  • For 7 days
  • Water Temperature
  • Weather Map
  • Weather Widgets
  • user-avatar
    Login

    Hourly Weather Tamale

    Today, 24 August, Saturday

    Time Temperature Precipitation Wind Pressure Humidity
    00:00 +25°C° 0.1 mm 2 mps 744 mmHg 96%
    01:00 +25°C° 0.6 mm 2 mps 744 mmHg 96%
    02:00 +24°C° 0.6 mm 2 mps 743 mmHg 97%
    03:00 +24°C° 0.6 mm 2 mps 743 mmHg 97%
    04:00 +24°C° 0.1 mm 3 mps 743 mmHg 97%
    05:00 +24°C° 0.1 mm 3 mps 744 mmHg 97%
    06:00 +24°C° 0.1 mm 3 mps 744 mmHg 97%
    07:00 +25°C° 0.1 mm 3 mps 744 mmHg 95%
    08:00 +25°C° 0.1 mm 3 mps 745 mmHg 94%
    09:00 +25°C° 0.1 mm 4 mps 745 mmHg 92%
    10:00 +26°C° 0.1 mm 4 mps 745 mmHg 87%
    11:00 +28°C° 0.1 mm 3 mps 745 mmHg 82%
    12:00 +29°C° 0.1 mm 3 mps 744 mmHg 77%
    13:00 +29°C° 0.7 mm 3 mps 744 mmHg 78%
    14:00 +29°C° 0.7 mm 3 mps 743 mmHg 79%
    15:00 +29°C° 0.7 mm 3 mps 742 mmHg 80%
    16:00 +28°C° 0.5 mm 3 mps 742 mmHg 83%
    17:00 +27°C° 0.5 mm 2 mps 742 mmHg 87%
    18:00 +26°C° 0.5 mm 2 mps 743 mmHg 91%
    19:00 +26°C° 0.5 mm 2 mps 743 mmHg 91%
    20:00 +26°C° 0.5 mm 1 mps 743 mmHg 92%
    21:00 +25°C° 0.5 mm 1 mps 744 mmHg 93%
    22:00 +25°C° 1.1 mm 2 mps 744 mmHg 93%
    23:00 +25°C° 1.1 mm 2 mps 744 mmHg 93%

    Tomorrow, 25 August, Sunday

    Time Temperature Precipitation Wind Pressure Humidity
    00:00 +25°C° 1.1 mm 2 mps 745 mmHg 93%
    01:00 +25°C° 2.4 mm 3 mps 744 mmHg 94%
    02:00 +24°C° 2.4 mm 3 mps 744 mmHg 95%
    03:00 +23°C° 2.4 mm 4 mps 743 mmHg 95%
    04:00 +24°C° 1.6 mm 3 mps 744 mmHg 96%
    05:00 +24°C° 1.6 mm 2 mps 744 mmHg 97%
    06:00 +24°C° 1.6 mm 2 mps 744 mmHg 98%
    07:00 +24°C° 2 mm 2 mps 745 mmHg 97%
    08:00 +24°C° 2 mm 2 mps 745 mmHg 97%
    09:00 +24°C° 2 mm 3 mps 746 mmHg 96%
    10:00 +24°C° 1.4 mm 2 mps 746 mmHg 96%
    11:00 +24°C° 1.4 mm 2 mps 745 mmHg 96%
    12:00 +24°C° 1.4 mm 2 mps 745 mmHg 96%
    13:00 +25°C° 0.2 mm 2 mps 745 mmHg 95%
    14:00 +25°C° 0.2 mm 1 mps 744 mmHg 93%
    15:00 +25°C° 0.2 mm 1 mps 743 mmHg 92%
    16:00 +25°C° 0 mm 1 mps 743 mmHg 93%
    17:00 +23°C° 0 mm 0 mps 743 mmHg 94%
    18:00 +22°C° 0 mm 0 mps 743 mmHg 95%
    19:00 +22°C° 0 mm 0 mps 744 mmHg 95%
    20:00 +22°C° 0 mm 0 mps 744 mmHg 96%
    21:00 +24°C° 0 mm 1 mps 745 mmHg 96%
    22:00 +24°C° 0 mm 1 mps 745 mmHg 96%
    23:00 +24°C° 0 mm 1 mps 745 mmHg 97%

    Day after tomorrow, 26 August, Monday

    Time Temperature Precipitation Wind Pressure Humidity
    00:00 +23°C° 0 mm 1 mps 745 mmHg 97%
    01:00 +23°C° 0 mm 1 mps 744 mmHg 97%
    02:00 +23°C° 0 mm 1 mps 744 mmHg 97%
    03:00 +23°C° 0 mm 1 mps 744 mmHg 97%
    04:00 +23°C° 0.3 mm 1 mps 744 mmHg 97%
    05:00 +21°C° 0.3 mm 0 mps 744 mmHg 97%
    06:00 +21°C° 0.3 mm 0 mps 744 mmHg 97%
    07:00 +24°C° 0.1 mm 1 mps 745 mmHg 95%
    08:00 +25°C° 0.1 mm 1 mps 745 mmHg 93%
    09:00 +26°C° 0.1 mm 2 mps 746 mmHg 91%
    10:00 +27°C° 1.2 mm 2 mps 745 mmHg 89%
    11:00 +28°C° 1.2 mm 3 mps 745 mmHg 87%
    12:00 +28°C° 1.2 mm 3 mps 744 mmHg 84%
    13:00 +28°C° 2.3 mm 3 mps 744 mmHg 85%
    14:00 +28°C° 2.3 mm 3 mps 743 mmHg 86%
    15:00 +28°C° 2.3 mm 3 mps 742 mmHg 87%
    16:00 +27°C° 0.4 mm 3 mps 742 mmHg 89%
    17:00 +27°C° 0.4 mm 2 mps 742 mmHg 91%
    18:00 +26°C° 0.4 mm 1 mps 742 mmHg 93%
    19:00 +25°C° 0 mm 1 mps 743 mmHg 94%
    20:00 +25°C° 0 mm 1 mps 744 mmHg 95%
    21:00 +24°C° 0 mm 1 mps 744 mmHg 96%
    22:00 +24°C° 0.1 mm 1 mps 744 mmHg 97%
    23:00 +24°C° 0.1 mm 1 mps 744 mmHg 97%

    27 August, Tuesday

    Time Temperature Precipitation Wind Pressure Humidity
    00:00 +24°C° 0.1 mm 1 mps 744 mmHg 97%
    01:00 +24°C° 0 mm 1 mps 744 mmHg 97%
    02:00 +24°C° 0 mm 1 mps 743 mmHg 97%
    03:00 +23°C° 0 mm 1 mps 743 mmHg 97%
    04:00 +23°C° 0 mm 1 mps 743 mmHg 97%
    05:00 +23°C° 0 mm 1 mps 744 mmHg 97%
    06:00 +23°C° 0 mm 1 mps 744 mmHg 98%
    07:00 +24°C° 0 mm 2 mps 744 mmHg 94%
    08:00 +25°C° 0 mm 2 mps 745 mmHg 91%
    09:00 +26°C° 0 mm 3 mps 745 mmHg 88%
    10:00 +27°C° 0.8 mm 3 mps 745 mmHg 85%
    11:00 +28°C° 0.8 mm 3 mps 744 mmHg 81%
    12:00 +29°C° 0.8 mm 3 mps 744 mmHg 78%
    13:00 +29°C° 1.2 mm 3 mps 743 mmHg 79%
    14:00 +29°C° 1.2 mm 3 mps 743 mmHg 80%
    15:00 +29°C° 1.2 mm 3 mps 742 mmHg 81%
    16:00 +28°C° 0.8 mm 3 mps 742 mmHg 85%
    17:00 +27°C° 0.8 mm 2 mps 742 mmHg 89%
    18:00 +26°C° 0.8 mm 2 mps 742 mmHg 92%
    19:00 +26°C° 0.6 mm 2 mps 743 mmHg 93%
    20:00 +25°C° 0.6 mm 2 mps 743 mmHg 94%
    21:00 +25°C° 0.6 mm 2 mps 744 mmHg 95%
    22:00 +25°C° 0.1 mm 2 mps 744 mmHg 95%
    23:00 +24°C° 0.1 mm 2 mps 744 mmHg 95%

    28 August, Wednesday

    Time Temperature Precipitation Wind Pressure Humidity
    00:00 +24°C° 0.1 mm 2 mps 744 mmHg 95%
    01:00 +24°C° 0.1 mm 2 mps 743 mmHg 95%
    02:00 +24°C° 0.1 mm 2 mps 743 mmHg 95%
    03:00 +24°C° 0.1 mm 1 mps 743 mmHg 95%
    04:00 +24°C° 0.1 mm 1 mps 743 mmHg 96%
    05:00 +24°C° 0.1 mm 1 mps 743 mmHg 96%
    06:00 +24°C° 0.1 mm 1 mps 744 mmHg 97%
    07:00 +24°C° 0.4 mm 2 mps 744 mmHg 96%
    08:00 +24°C° 0.4 mm 2 mps 745 mmHg 95%
    09:00 +25°C° 0.4 mm 3 mps 745 mmHg 94%
    10:00 +25°C° 0.7 mm 3 mps 745 mmHg 92%
    11:00 +26°C° 0.7 mm 3 mps 745 mmHg 91%
    12:00 +26°C° 0.7 mm 4 mps 744 mmHg 89%
    13:00 +26°C° 1 mm 3 mps 744 mmHg 89%
    14:00 +26°C° 1 mm 3 mps 743 mmHg 89%
    15:00 +26°C° 1 mm 3 mps 743 mmHg 89%
    16:00 +26°C° 0.1 mm 3 mps 743 mmHg 90%
    17:00 +25°C° 0.1 mm 2 mps 743 mmHg 92%
    18:00 +25°C° 0.1 mm 2 mps 743 mmHg 93%
    19:00 +24°C° 0 mm 1 mps 743 mmHg 94%
    20:00 +24°C° 0 mm 1 mps 744 mmHg 94%
    21:00 +24°C° 0 mm 1 mps 744 mmHg 94%
    22:00 +24°C° 0 mm 1 mps 744 mmHg 95%
    23:00 +23°C° 0 mm 1 mps 744 mmHg 96%

    29 August, Thursday

    Time Temperature Precipitation Wind Pressure Humidity
    00:00 +23°C° 0 mm 1 mps 744 mmHg 97%
    01:00 +23°C° 0 mm 1 mps 744 mmHg 97%
    02:00 +23°C° 0 mm 1 mps 744 mmHg 97%
    03:00 +23°C° 0 mm 1 mps 743 mmHg 97%
    04:00 +23°C° 0 mm 1 mps 744 mmHg 97%
    05:00 +23°C° 0 mm 1 mps 744 mmHg 97%
    06:00 +23°C° 0 mm 1 mps 744 mmHg 96%
    07:00 +24°C° 0.1 mm 1 mps 745 mmHg 94%
    08:00 +25°C° 0.1 mm 2 mps 745 mmHg 92%
    09:00 +26°C° 0.1 mm 2 mps 746 mmHg 90%
    10:00 +26°C° 1 mm 2 mps 746 mmHg 88%
    11:00 +27°C° 1 mm 3 mps 745 mmHg 86%
    12:00 +28°C° 1 mm 3 mps 745 mmHg 85%
    13:00 +28°C° 1.5 mm 3 mps 744 mmHg 84%
    14:00 +28°C° 1.5 mm 3 mps 743 mmHg 84%
    15:00 +29°C° 1.5 mm 2 mps 743 mmHg 83%
    16:00 +28°C° 0.9 mm 2 mps 743 mmHg 87%
    17:00 +27°C° 0.9 mm 2 mps 743 mmHg 90%
    18:00 +26°C° 0.9 mm 1 mps 743 mmHg 93%
    19:00 +25°C° 0.1 mm 1 mps 744 mmHg 94%
    20:00 +25°C° 0.1 mm 1 mps 744 mmHg 95%
    21:00 +25°C° 0.1 mm 1 mps 745 mmHg 95%
    22:00 +25°C° 0 mm 1 mps 745 mmHg 95%
    23:00 +24°C° 0 mm 1 mps 745 mmHg 95%
    Show more